Regional Weather Roundup
Issued by NWS

Home | Current Version | Previous Version | Text Only | Print | Product List | Glossary Off
Versions: 1 2 3 4 5 6 7 8 9 10 11 12 13 14 15 16 17 18 19 20 21 22 23 24 25 26 27 28 29 30 31 32 33 34 35 36 37 38 39 40 41 42 43 44 45 46 47 48 49 50

000
ASUS43 KIND 030009
RWRIN

WEATHER ROUNDUP FOR INDIANA
NATIONAL WEATHER SERVICE INDIANAPOLIS IN
800 PM EDT WED SEP 02 2015

NOTE: "FAIR" INDICATES FEW OR NO CLOUDS BELOW 12,000 FEET WITH NO
SIGNIFICANT WEATHER AND/OR OBSTRUCTIONS TO VISIBILITY.

* - STATION DOES NOT REPORT WEATHER SUCH AS PRECIPITATION OR FOG.

+ - STATION NOT QUALITY CONTROLLED BY THE NATIONAL WEATHER SERVICE.
    USE DATA WITH CAUTION...ESPECIALLY DEWPOINT AND RELATIVE
    HUMIDITY OBSERVATIONS.

INZ001>003-010>013-019-020-030100-
NORTHWEST INDIANA

CITY           SKY/WX    TMP DP  RH WIND       PRES   REMARKS
GARY /AIRPORT/ MOCLDY    86  64  48 W12       29.96S
KNOX *+        MOCLDY    79  70  73 SE3       29.97F
LA PORTE +     CLOUDY    83  75  74 CALM      29.99S
6HR MIN TEMP:  83; 6HR MAX TEMP:  91;

MICHIGAN CITY+ CLOUDY    79  68  69 CALM      29.97F
MONTICELLO +   MOCLDY    83  69  62 SW5       29.98S
6HR MIN TEMP:  83; 6HR MAX TEMP:  89;

RENSSELAER +   MOCLDY    81  72  74 S5        29.98S
VALPARAISO     MOCLDY    84  71  65 VRB5      29.98S
6HR MIN TEMP:  84; 6HR MAX TEMP:  90;


$$

LMZ046-743>745-030100-
SOUTHERN LAKE MICHIGAN

STATION/POSITION TIME  TEMP    WIND        PRES    WAVE
                       AIR SEA DIR/SP/G            HT
                 (UTC) (F)     (DEG/KT/KT) (MB)    (FT)
BURNS HARBOR     2300   86     220/  7/ 10 1014.9S
MICHIGAN CITY    2300   83     330/  3/  4   N/A
5NW MICH CITY    0000   79 76  100/  6/  8   N/A     0

$$

INZ004-005-014>016-021>024-030100-
NORTH CENTRAL INDIANA

CITY           SKY/WX    TMP DP  RH WIND       PRES   REMARKS
ELKHART        PTCLDY    81  72  74 CALM      29.99R
GOSHEN         PTCLDY    81  70  69 CALM      29.99R
6HR MIN TEMP:  81; 6HR MAX TEMP:  89;

LOGANSPORT +   CLEAR     79  64  61 W5        30.01R
PERU/GRISSOM   CLEAR     81  69  67 W6        29.99R
6HR MIN TEMP:  81; 6HR MAX TEMP:  91;

ROCHESTER +    PTCLDY    86  68  54 CALM      30.00R
SOUTH BEND     PTCLDY    82  70  66 CALM      29.99R
6HR MIN TEMP:  82; 6HR MAX TEMP:  90;

WARSAW +       CLEAR     79  70  73 CALM      29.99S

$$

INZ006>009-017-018-025>027-030100-
NORTHEAST INDIANA

CITY           SKY/WX    TMP DP  RH WIND       PRES   REMARKS
ANGOLA *+      CLEAR     79  73  83 CALM      30.00S
AUBURN +       PTCLDY    79  66  65 CALM      30.00S
FORT WAYNE     PTCLDY    81  69  67 CALM      30.00R
6HR MIN TEMP:  81; 6HR MAX TEMP:  89; 6HR PCP: TRACE;

HUNTINGTON +   CLEAR     80  65  60 CALM      29.99S
6HR MIN TEMP:  80; 6HR MAX TEMP:  90;


$$

INZ028-029-035-036-043>045-051>053-030100-
WEST CENTRAL INDIANA

CITY           SKY/WX    TMP DP  RH WIND       PRES   REMARKS
GREENCASTLE +  CLEAR     79  66  65 CALM      30.02S
LAFAYETTE      PTCLDY    83  69  62 SW3       29.98F
6HR MIN TEMP:  83; 6HR MAX TEMP:  90;

TERRE HAUTE    PTCLDY    83  68  60 S3        30.00F
6HR MIN TEMP:  83; 6HR MAX TEMP:  90;


$$

INZ030>032-037>040-046>048-054>057-064-065-030100-
CENTRAL INDIANA

CITY           SKY/WX    TMP DP  RH WIND       PRES   REMARKS
COLUMBUS       PTCLDY    81  66  61 SW5       30.01F
FRANKFORT +    PTCLDY    80  71  74 S5        30.03S
6HR MIN TEMP:  80; 6HR MAX TEMP:  91;

GREENWOOD *+   CLEAR     81  64  57 SW3       30.02S
INDIANAPOLIS   PTCLDY    82  68  62 SW7       30.00S
6HR MIN TEMP:  82; 6HR MAX TEMP:  90;

-EAGLE CREEK   PTCLDY    84  68  58 W3        30.00S
6HR MIN TEMP:  84; 6HR MAX TEMP:  89;

KOKOMO *+      CLEAR     82  66  57 W6        30.00S
6HR MIN TEMP:  82; 6HR MAX TEMP:  91;

MARION +       CLEAR     79  60  53 W5        30.00F
MT COMFORT *+  PTCLDY    81  64  57 SE3       30.02S
SHELBYVILLE    PTCLDY    83  68  60 CALM      30.01R
6HR MIN TEMP:  83; 6HR MAX TEMP:  91;

ZIONSVILLE +   PTCLDY    82  66  58 W5        30.02S
6HR MIN TEMP:  82; 6HR MAX TEMP:  90;


$$

INZ033-034-041-042-049-050-058-059-030100-
EAST CENTRAL INDIANA

CITY           SKY/WX    TMP DP  RH WIND       PRES   REMARKS
MUNCIE         CLEAR     79  69  71 W6        30.01R
6HR MIN TEMP:  79; 6HR MAX TEMP:  87;


$$

INZ060-061-067>069-081>083-085>088-030100-
SOUTHWEST INDIANA

CITY           SKY/WX    TMP DP  RH WIND       PRES   REMARKS
EVANSVILLE     CLEAR     85  67  54 CALM      30.00S
6HR MIN TEMP:  85; 6HR MAX TEMP:  93;

HUNTINGBURG *+ CLEAR     84  64  51 CALM      30.01S
6HR MIN TEMP:  84; 6HR MAX TEMP:  91;

WASHINGTON +   CLEAR     81  67  62 CALM      29.99F
6HR MIN TEMP:  81; 6HR MAX TEMP:  91;


$$

INZ062-063-066-070>080-084-089>092-030100-
SOUTH CENTRAL AND SOUTHEAST INDIANA

CITY           SKY/WX    TMP DP  RH WIND       PRES   REMARKS
BLOOMINGTON    CLEAR     78  72  81 CALM      30.02S
6HR MIN TEMP:  78; 6HR MAX TEMP:  89;

NORTH VERNON + CLEAR     84  68  58 CALM      30.02S
SEYMOUR +      CLEAR     84  68  58 CALM      30.01S

$$



USA.gov is the U.S. government's official web portal to all federal, state and local government web resources and services.